Wind_Speed
24 23 24 23 23 24 24 24 24 23 23 22 22 21 21 20 19 18 18 17 17 17 17 16 16 15 15 15 15 14 13 14 13 12 13 13 13 14 14 15 16 16 17
25 25 25 26 26 25 25 25 26 25 25 24 23 23 22 22 21 20 19 19 18 19 19 19 18 17 17 17 17 17 16 15 15 15 15 15 16 16 16 17 18 19 19
27 27 27 27 27 27 27 27 26 26 26 25 25 24 24 23 23 22 21 21 19 20 20 20 20 20 20 19 19 18 18 17 17 17 17 18 18 18 19 19 21 21 22
28 29 29 29 29 29 29 29 28 27 27 27 26 26 25 25 24 24 23 22 22 22 22 22 22 22 22 21 21 21 20 20 20 20 20 20 20 21 21 22 23 23 24
30 30 31 31 31 31 31 31 29 29 29 29 28 27 27 28 27 26 25 25 25 25 24 23 23 24 23 23 23 22 22 22 23 23 23 23 23 23 24 24 25 25 26
31 32 33 32 32 31 31 30 30 31 31 30 30 29 29 29 29 28 27 27 27 26 26 26 25 25 26 26 25 25 25 24 25 26 26 26 26 26 26 26 27 28 29
33 33 33 32 32 31 31 31 30 30 31 31 31 30 30 30 30 29 28 28 28 28 28 27 27 27 27 27 27 27 27 27 27 27 27 27 28 28 28 28 29 30 31
32 32 33 32 32 32 31 31 30 31 32 32 32 32 31 31 31 30 30 29 30 30 30 29 29 29 29 28 28 28 28 29 29 29 29 30 30 31 31 31 31 32 33
34 33 33 33 33 32 31 31 31 31 31 32 32 32 32 32 32 31 32 31 31 32 32 32 31 30 29 29 30 30 30 30 31 32 32 32 33 33 33 33 34 34 35
33 34 34 34 32 32 31 32 32 32 32 33 33 33 33 33 33 33 33 33 33 33 33 33 33 32 31 31 32 32 32 33 33 34 34 35 35 35 35 35 35 36 37
33 34 34 34 34 32 32 32 32 32 33 33 33 33 33 33 33 33 33 33 34 34 34 34 34 34 34 34 34 34 35 35 36 36 37 37 36 36 37 37 37 38 38
33 34 34 34 33 33 33 33 33 33 33 32 33 35 35 35 33 33 32 32 33 34 34 33 34 35 34 35 36 36 37 38 37 37 37 37 37 37 38 38 39 38 38
32 32 32 32 32 32 33 33 33 33 33 33 32 34 35 35 33 33 33 33 33 33 34 34 34 35 35 35 36 37 37 37 37 37 38 38 38 38 38 38 38 38 39
29 30 30 30 31 31 31 32 33 33 33 33 33 32 33 33 32 31 32 32 33 34 34 33 34 35 35 35 36 37 37 36 36 37 38 38 39 39 38 37 38 39 39
26 26 27 28 29 29 29 29 30 30 31 32 32 32 32 32 32 31 31 32 32 32 32 33 34 34 33 34 34 33 34 35 35 36 37 38 38 37 36 37 37 37 37
26 26 26 26 26 27 27 27 28 29 29 30 30 31 31 31 31 30 30 31 32 33 34 33 33 33 33 33 33 33 34 35 35 36 37 36 35 35 35 35 35 35 36
23 23 24 24 25 25 25 26 27 28 29 29 28 29 30 30 30 30 30 30 31 31 31 31 32 31 31 31 32 33 34 34 34 34 33 34 33 33 33 32 32 33 34
22 22 23 23 24 24 24 25 26 26 26 27 27 28 28 29 28 29 29 28 29 29 29 30 30 29 29 30 31 31 30 30 30 31 31 30 29 29 29 30 30 31 33
22 22 22 22 23 23 23 23 24 24 24 24 24 24 25 26 27 27 26 26 25 25 26 27 27 26 26 27 27 26 26 27 27 27 26 26 26 27 28 29 30 31 32
23 22 23 23 22 22 22 22 22 23 22 22 22 22 22 23 24 24 24 24 24 24 24 24 24 25 25 25 25 25 25 25 24 24 24 24 25 26 27 28 29 30 30
24 24 23 23 22 21 21 20 20 21 21 21 21 20 20 21 22 21 22 22 23 23 23 24 23 23 23 23 23 23 22 22 22 22 23 24 25 26 27 27 28 28 28
23 23 23 22 21 21 20 19 19 19 19 19 19 20 19 19 20 20 20 19 19 20 20 20 20 20 21 21 21 20 20 20 21 21 22 23 24 25 26 26 27 27 26
23 22 22 21 20 20 20 19 18 18 18 18 18 19 19 19 19 19 18 19 18 19 19 18 18 19 19 19 19 19 19 20 20 21 22 23 23 24 24 25 25 24 24
21 20 20 18 18 18 18 18 17 17 17 17 18 19 18 17 17 17 17 17 18 18 17 18 18 18 17 17 17 17 18 19 20 21 21 21 22 22 22 22 22 21 21
17 17 17 16 16 15 16 15 15 14 14 14 14 14 14 14 15 15 16 16 16 16 16 16 16 16 16 17 17 18 18 18 19 20 20 21 21 21 20 20 19 19 18
14 14 13 13 13 13 12 11 11 12 12 11 10 10 10 10 11 12 13 14 14 14 14 14 15 15 15 16 16 17 17 17 18 18 19 19 19 18 18 17 17 16 15
Wind_Direction
263 262 264 265 264 264 263 261 259 259 258 258 257 256 256 257 258 255 253 255 257 258 257 258 258 258 259 262 268 272 274 274 277 280 279 279 279 278 279 277 277 279 279
265 266 265 265 265 265 263 261 259 261 260 258 257 255 254 256 257 256 256 256 258 259 258 258 258 259 261 264 268 271 273 274 276 277 277 280 281 281 281 280 279 280 280
264 265 264 265 265 265 264 261 258 259 259 257 255 255 254 254 257 256 254 255 257 258 258 257 258 260 263 265 268 270 272 273 276 276 278 279 279 280 281 281 282 280 280
266 266 264 267 267 266 266 262 260 259 259 257 255 254 254 255 258 258 256 255 256 257 257 257 258 260 262 264 267 270 272 272 274 276 279 280 279 280 280 281 282 281 281
267 267 266 266 267 267 267 265 262 260 258 257 255 254 254 255 256 257 258 256 257 257 258 259 260 261 262 264 267 269 271 272 273 275 277 280 281 280 281 282 283 281 282
267 267 266 266 266 267 267 266 264 260 258 257 256 256 255 256 256 258 259 258 259 259 259 261 262 261 261 263 265 267 270 272 274 276 277 279 281 281 282 284 284 284 284
268 267 266 266 267 268 268 267 265 261 259 257 256 256 257 258 259 259 259 260 261 261 261 262 263 263 263 264 266 268 269 272 275 277 278 280 281 282 284 285 286 286 285
268 267 267 267 269 268 266 266 265 263 260 257 257 258 257 258 259 261 260 261 262 261 262 264 264 266 268 267 268 269 269 272 275 277 279 281 282 282 284 286 287 288 287
268 268 267 267 267 267 267 265 263 263 261 258 259 259 259 258 260 261 262 260 260 260 262 263 265 267 266 268 268 269 271 272 274 276 279 281 283 282 284 286 287 287 288
268 267 266 265 267 268 266 265 262 262 261 258 259 260 261 260 262 262 263 261 260 261 262 264 266 268 268 268 269 270 272 273 275 276 278 281 283 283 284 284 286 287 288
267 267 267 266 266 266 265 264 263 262 261 259 257 259 260 260 261 262 263 263 262 262 263 264 265 268 269 269 269 271 272 274 274 276 277 280 281 282 283 285 286 287 288
269 268 268 267 265 264 264 264 263 262 262 261 259 259 261 261 262 261 261 263 264 263 263 265 265 268 269 269 269 271 273 275 275 276 277 279 282 284 284 285 286 287 288
269 269 268 267 265 263 262 262 262 260 260 261 261 261 261 261 261 262 262 261 263 264 264 267 267 268 270 270 271 273 273 274 275 276 278 281 283 284 284 285 287 288 290
271 270 268 267 266 264 263 262 261 261 261 260 261 262 262 262 260 261 261 261 262 263 265 267 267 267 269 271 272 273 273 274 275 277 279 281 282 282 283 286 288 290 291
273 271 270 268 266 266 265 263 261 261 261 261 260 261 262 261 260 261 260 260 261 264 264 264 268 270 269 272 272 273 274 275 276 277 278 280 281 282 285 288 289 291 292
275 272 272 269 267 267 266 265 264 264 263 262 261 262 263 262 262 263 262 261 262 263 264 266 268 268 270 271 271 273 274 276 278 279 281 281 283 285 288 290 291 292 294
277 275 273 271 269 269 268 267 267 265 264 263 263 263 263 263 263 264 264 262 264 264 265 267 269 271 274 275 274 274 276 279 280 281 282 285 286 288 290 292 294 295 296
277 277 276 275 272 270 269 268 266 266 265 265 264 263 262 263 264 264 265 267 267 267 268 270 272 272 273 274 275 277 281 283 284 285 287 289 290 292 294 295 296 298 299
277 277 276 275 272 271 271 268 267 266 265 265 265 263 261 262 262 266 268 268 271 271 271 272 272 274 275 277 279 282 284 286 289 289 290 292 294 295 295 296 298 299 300
278 277 277 276 274 272 271 269 267 267 265 263 264 263 263 263 264 267 269 269 269 271 271 272 274 275 276 277 278 281 285 288 292 292 292 294 295 295 297 299 299 300 301
276 275 276 275 274 273 272 271 270 269 265 263 261 263 266 264 264 265 267 269 271 274 276 275 276 278 279 281 284 287 288 290 292 294 295 297 297 298 299 300 300 301 301
274 273 273 273 273 274 272 272 271 271 266 262 259 260 261 261 262 264 266 268 272 273 275 276 277 279 281 284 287 289 291 294 296 297 298 298 298 298 300 301 301 302 302
274 273 271 269 269 270 270 268 269 269 264 258 256 257 257 259 261 264 267 269 270 272 274 275 277 283 287 288 289 291 294 297 298 299 299 299 299 300 301 301 302 303 304
273 271 270 268 269 270 268 265 265 266 263 261 259 257 257 257 260 261 263 267 271 273 273 274 276 281 286 287 290 293 296 297 297 297 298 299 301 301 301 302 304 305 306
271 271 268 266 265 264 264 262 260 258 256 257 254 254 253 251 255 259 262 265 268 270 272 274 281 287 289 291 293 295 296 298 298 299 300 301 302 302 303 305 306 308 309
268 268 264 262 260 258 257 255 249 246 249 250 249 249 247 252 256 259 261 263 268 273 279 283 287 289 291 292 294 295 297 298 299 300 301 303 304 304 305 307 309 312 313
Height
5866 5867 5868 5870 5870 5871 5872 5873 5875 5875 5876 5877 5878 5879 5880 5881 5882 5883 5883 5884 5885 5886 5887 5887 5888 5888 5889 5889 5889 5890 5890 5890 5890 5889 5889 5889 5889 5889 5889 5888 5888 5888 5888
5861 5862 5864 5865 5865 5866 5867 5868 5870 5871 5872 5872 5873 5875 5876 5877 5878 5879 5879 5881 5882 5882 5883 5884 5884 5885 5885 5886 5886 5887 5887 5887 5886 5886 5886 5886 5886 5886 5885 5885 5885 5885 5884
5857 5857 5858 5859 5860 5861 5862 5863 5864 5865 5867 5868 5868 5870 5870 5871 5873 5874 5876 5877 5878 5878 5879 5880 5881 5881 5882 5882 5882 5883 5883 5883 5883 5883 5882 5882 5882 5882 5881 5881 5881 5880 5880
5851 5852 5853 5853 5854 5855 5856 5857 5859 5860 5862 5863 5863 5865 5866 5867 5869 5870 5871 5872 5873 5874 5874 5875 5876 5877 5877 5878 5878 5878 5879 5879 5879 5878 5878 5878 5878 5877 5877 5876 5876 5875 5875
5845 5846 5847 5848 5848 5849 5850 5851 5853 5855 5856 5857 5858 5859 5861 5862 5863 5864 5865 5866 5868 5869 5869 5871 5871 5872 5873 5873 5873 5874 5874 5874 5874 5874 5873 5873 5873 5872 5872 5871 5871 5870 5869
5839 5840 5841 5841 5842 5843 5844 5845 5846 5847 5849 5850 5852 5853 5855 5856 5857 5858 5859 5860 5862 5863 5864 5865 5866 5867 5867 5868 5868 5868 5869 5869 5869 5868 5868 5868 5867 5867 5866 5866 5865 5864 5863
5832 5833 5834 5834 5835 5837 5837 5838 5839 5840 5842 5844 5845 5847 5848 5850 5851 5852 5853 5854 5856 5857 5858 5859 5860 5861 5862 5862 5863 5863 5863 5863 5863 5863 5862 5862 5861 5861 5860 5859 5859 5858 5857
5825 5826 5826 5827 5829 5830 5830 5830 5832 5834 5836 5837 5839 5839 5841 5843 5845 5846 5847 5849 5850 5850 5852 5853 5854 5855 5856 5856 5856 5857 5857 5857 5857 5857 5856 5855 5855 5854 5853 5853 5851 5850 5849
5818 5819 5820 5821 5822 5823 5824 5825 5826 5827 5829 5830 5831 5833 5834 5836 5837 5839 5840 5842 5842 5844 5845 5846 5847 5848 5849 5850 5850 5850 5850 5850 5850 5850 5849 5848 5848 5847 5846 5845 5844 5842 5841
5811 5811 5812 5813 5814 5816 5817 5818 5819 5820 5821 5823 5824 5826 5828 5829 5831 5832 5834 5834 5835 5836 5838 5839 5840 5841 5842 5843 5843 5843 5843 5843 5843 5842 5842 5841 5840 5840 5838 5837 5836 5834 5833
5803 5804 5805 5805 5806 5808 5809 5811 5812 5813 5814 5815 5817 5818 5820 5821 5823 5825 5826 5828 5828 5829 5830 5832 5833 5834 5835 5835 5835 5836 5836 5836 5835 5835 5834 5833 5832 5831 5830 5829 5828 5826 5824
5795 5796 5797 5798 5799 5801 5802 5803 5804 5805 5807 5808 5810 5812 5813 5814 5816 5817 5818 5820 5820 5822 5823 5824 5825 5826 5827 5827 5827 5828 5828 5827 5827 5827 5826 5825 5824 5823 5822 5821 5819 5817 5815
5788 5788 5789 5790 5791 5793 5794 5795 5796 5798 5799 5801 5802 5804 5805 5806 5808 5809 5810 5812 5813 5814 5815 5816 5817 5818 5818 5819 5819 5819 5819 5819 5819 5819 5818 5817 5816 5815 5813 5812 5810 5808 5806
5781 5781 5782 5783 5784 5785 5786 5787 5789 5790 5792 5793 5795 5796 5798 5799 5800 5801 5803 5804 5805 5806 5807 5808 5809 5809 5810 5811 5811 5811 5811 5811 5811 5810 5809 5808 5807 5806 5804 5803 5801 5799 5797
5774 5775 5775 5776 5777 5778 5779 5780 5781 5783 5784 5785 5787 5789 5790 5792 5793 5794 5796 5797 5799 5799 5799 5800 5801 5801 5802 5803 5803 5803 5802 5802 5802 5801 5801 5799 5798 5797 5795 5794 5792 5790 5788
5768 5768 5769 5769 5770 5771 5772 5773 5774 5775 5776 5778 5780 5781 5783 5784 5785 5787 5788 5790 5791 5792 5792 5793 5793 5794 5794 5794 5795 5795 5794 5794 5793 5793 5792 5791 5789 5788 5786 5785 5783 5781 5779
5762 5762 5762 5762 5763 5764 5765 5766 5767 5768 5769 5771 5772 5774 5775 5777 5778 5780 5781 5782 5783 5785 5785 5786 5786 5786 5786 5787 5786 5787 5787 5786 5785 5784 5783 5782 5781 5780 5778 5776 5775 5772 5770
5756 5756 5756 5756 5757 5758 5758 5759 5760 5761 5762 5763 5765 5766 5768 5770 5771 5773 5774 5775 5776 5777 5778 5779 5779 5779 5779 5779 5779 5779 5778 5778 5777 5776 5775 5774 5773 5772 5770 5769 5766 5764 5761
5750 5750 5750 5750 5751 5751 5752 5752 5753 5754 5755 5757 5758 5759 5761 5763 5765 5766 5767 5768 5770 5770 5771 5772 5772 5772 5772 5772 5772 5772 5771 5771 5770 5769 5768 5767 5766 5764 5763 5761 5758 5756 5753
5744 5744 5744 5744 5745 5745 5745 5746 5747 5748 5749 5750 5752 5753 5755 5757 5759 5760 5761 5762 5763 5764 5765 5765 5765 5766 5766 5766 5765 5765 5765 5764 5763 5762 5761 5760 5759 5757 5755 5753 5750 5748 5745
5738 5738 5738 5738 5738 5739 5739 5740 5741 5742 5743 5744 5746 5748 5749 5751 5753 5754 5755 5757 5757 5758 5758 5759 5759 5760 5760 5760 5760 5759 5758 5757 5757 5756 5755 5753 5751 5750 5747 5745 5743 5740 5738
5731 5731 5732 5732 5732 5733 5734 5734 5736 5737 5738 5739 5741 5743 5744 5746 5747 5749 5750 5751 5752 5753 5753 5753 5754 5754 5754 5754 5753 5753 5752 5752 5751 5750 5748 5747 5745 5743 5740 5738 5736 5733 5731
5725 5725 5725 5726 5727 5728 5728 5729 5731 5732 5733 5734 5736 5737 5739 5740 5742 5743 5744 5746 5746 5747 5748 5749 5749 5749 5749 5749 5748 5747 5747 5746 5744 5743 5742 5740 5739 5736 5734 5732 5730 5727 5725
5719 5719 5720 5720 5721 5722 5723 5725 5726 5727 5728 5730 5731 5733 5734 5736 5737 5739 5740 5741 5741 5742 5743 5743 5744 5744 5743 5743 5742 5742 5741 5740 5739 5737 5736 5734 5732 5730 5728 5726 5724 5721 5719
5714 5714 5715 5716 5717 5718 5719 5720 5721 5723 5724 5726 5727 5728 5730 5731 5733 5734 5735 5736 5737 5738 5738 5738 5739 5739 5738 5738 5737 5736 5735 5734 5733 5732 5730 5729 5727 5725 5723 5720 5718 5716 5714
5710 5710 5711 5712 5713 5714 5715 5716 5718 5720 5721 5723 5724 5725 5727 5728 5729 5730 5731 5732 5733 5734 5734 5734 5734 5734 5734 5733 5732 5731 5730 5729 5728 5727 5725 5724 5722 5720 5718 5716 5714 5712 5710